Вернуться в каталог

COSMOS 1249 COOLANT

LostLEO
NORAD 27569·DEBRIS·🇷🇺 Russia

Запущен Mar 5, 1981 с Baikonur Cosmodrome

Loading…

Ближайшие Пролёты (ближайшие 24 часа)

TLE

УстаревшееSource: Space-Track

Эпоха: May 24, 2025, 14:41 UTC

1 27569U 81021R   25144.61205683  .00000097  00000-0  14510-3 0  9998
2 27569  64.9607 227.3514 0045951 358.3013   1.7888 13.92303028600003

Отслеживайте COSMOS 1249 COOLANT в реальном времени с AllMySat

Download on the App Store